Terug naar catalogus

INTELSAT 3-F3

ActiefCommunicatieMEO
NORAD 3674·PAYLOAD· XX

Gelanceerd Feb 6, 1969 vanaf Cape Canaveral Space Force Station

Loading…

Volgende Passages (komende 24 uur)

TLE

VersSource: Space-Track

Epoch: Sep 14, 2026, 18:59 UTC

1 03674U 69011A   26257.79130767 -.00000215  00000-0  00000-0 0  9998
2 03674   9.2726 302.9905 0179357   2.3654 346.3949  0.84931720 67452

Volg INTELSAT 3-F3 in realtime met AllMySat

Download on the App Store